EW5053 Weather Reports


time (UTC)temp
C
wind
direction
speed
KPH
gust
KPH
rain 1hr
cm
rain 24hr
cm
rain mn
cm
humidity
%
barometer
mb
20260903043504 26 0 0.0 0.0 0.00 0.00 0.00 72 1016.6
20260903043004 26 0 0.0 0.0 0.00 0.00 0.00 72 1016.7
20260903042505 26 0 0.0 0.0 0.00 0.00 0.00 72 1016.9
20260903042004 26 0 0.0 0.0 0.00 0.00 0.00 71 1016.6
20260903041504 26 0 0.0 0.0 0.00 0.00 0.00 71 1016.7
20260903041004 26 0 0.0 0.0 0.00 0.00 0.00 71 1016.6
20260903040504 26 0 0.0 0.0 0.00 0.00 0.00 71 1016.6
20260903040004 26 0 0.0 0.0 0.00 0.00 0.00 71 1016.6
20260903035505 26 0 0.0 0.0 0.00 0.00 0.00 70 1016.7
20260903035004 27 0 0.0 0.0 0.00 0.00 0.00 70 1016.8
20260903034503 27 0 0.0 0.0 0.00 0.00 0.00 70 1016.6
20260903033504 27 0 0.0 0.0 0.00 0.00 0.00 70 1016.7
20260903033004 27 0 0.0 0.0 0.00 0.00 0.00 69 1016.8
20260903032504 27 37 0.0 1.6 0.00 0.00 0.00 69 1016.9
20260903032004 27 37 0.0 1.6 0.00 0.00 0.00 66 1016.9
20260903031505 27 0 0.0 0.0 0.00 0.00 0.00 66 1016.9
20260903030504 27 278 0.0 1.6 0.00 0.00 0.00 65 1017.0
20260903030005 27 261 0.0 1.6 0.00 0.00 0.00 65 1017.0
20260903025503 27 219 0.0 1.6 0.00 0.00 0.00 65 1017.1
20260903025004 28 219 0.0 1.6 0.00 0.00 0.00 65 1017.0
20260903024504 28 0 0.0 0.0 0.00 0.00 0.00 65 1017.2
20260903024004 28 0 0.0 0.0 0.00 0.00 0.00 64 1017.1
20260903023503 28 0 0.0 0.0 0.00 0.00 0.00 64 1017.2
20260903023004 28 261 0.0 1.6 0.00 0.00 0.00 64 1017.2
20260903022504 28 261 0.0 1.6 0.00 0.00 0.00 64 1017.0
20260903022004 28 261 0.0 1.6 0.00 0.00 0.00 64 1016.9
20260903021503 28 0 0.0 0.0 0.00 0.00 0.00 64 1017.2
20260903021005 28 0 0.0 0.0 0.00 0.00 0.00 63 1017.3
20260903020005 29 261 0.0 1.6 0.00 0.00 0.00 63 1017.0
20260903015503 29 261 0.0 1.6 0.00 0.00 0.00 62 1017.2
20260903015004 29 0 0.0 0.0 0.00 0.00 0.00 62 1016.9
20260903014506 29 37 0.0 1.6 0.00 0.00 0.00 62 1017.1
20260903014003 29 37 0.0 1.6 0.00 0.00 0.00 61 1017.1
20260903013504 30 0 0.0 0.0 0.00 0.00 0.00 61 1016.9
20260903012504 30 15 0.0 1.6 0.00 0.00 0.00 60 1016.9
20260903011504 30 351 0.0 1.6 0.00 0.00 0.00 59 1016.9
20260903011003 30 351 0.0 1.6 0.00 0.00 0.00 59 1016.8
20260903010505 31 335 0.0 1.6 0.00 0.00 0.00 58 1016.7
20260903010004 31 253 0.0 3.2 0.00 0.00 0.00 58 1016.6
20260903005504 31 255 0.0 3.2 0.00 0.00 0.00 57 1016.6
20260903005003 31 256 1.6 3.2 0.00 0.00 0.00 57 1016.7
20260903004005 31 248 1.6 4.8 0.00 0.00 0.00 57 1016.5
20260903003504 31 253 1.6 4.8 0.00 0.00 0.00 56 1016.2
20260903002504 32 245 1.6 3.2 0.00 0.00 0.00 56 1016.5
20260903002004 32 236 0.0 3.2 0.00 0.00 0.00 56 1016.4
20260903001504 32 226 1.6 4.8 0.00 0.00 0.00 56 1016.4
20260903000503 32 215 1.6 4.8 0.00 0.00 0.00 54 1016.4
20260903000004 32 214 3.2 4.8 0.00 0.00 0.00 54 1016.5
20260902235504 32 216 3.2 4.8 0.00 0.00 0.00 54 1016.4
20260902235004 33 221 1.6 4.8 0.00 0.00 0.00 54 1016.4
20260902234504 33 225 3.2 4.8 0.00 0.00 0.00 54 1016.5
20260902234003 33 237 1.6 4.8 0.00 0.00 0.00 54 1016.5
20260902233504 33 232 3.2 4.8 0.00 0.00 0.00 54 1016.5
20260902233004 33 227 1.6 4.8 0.00 0.00 0.00 54 1016.6
20260902232506 33 242 3.2 8.0 0.00 0.00 0.00 54 1016.6
20260902232004 33 234 3.2 9.7 0.00 0.00 0.00 54 1016.6
20260902231504 33 234 1.6 9.7 0.00 0.00 0.00 54 1016.5
20260902230503 33 252 3.2 8.0 0.00 0.00 0.00 54 1016.7
20260902230003 33 235 3.2 8.0 0.00 0.00 0.00 55 1016.7
20260902225003 34 246 4.8 8.0 0.00 0.00 0.00 54 1016.7
20260902224004 34 258 3.2 8.0 0.00 0.00 0.00 54 1016.7
20260902223504 34 231 3.2 9.7 0.00 0.00 0.00 54 1016.7
20260902223005 34 231 6.4 11.3 0.00 0.00 0.00 55 1016.6
20260902222004 34 241 8.0 11.3 0.00 0.00 0.00 55 1016.7
20260902221504 34 238 8.0 11.3 0.00 0.00 0.00 54 1016.6
20260902221004 34 238 4.8 12.9 0.00 0.00 0.00 54 1016.8
20260902220504 34 235 8.0 12.9 0.00 0.00 0.00 54 1016.8
20260902220004 34 235 4.8 9.7 0.00 0.00 0.00 55 1016.8
20260902215504 34 249 6.4 12.9 0.00 0.00 0.00 55 1016.7
20260902215004 34 255 4.8 12.9 0.00 0.00 0.00 54 1016.8
20260902214504 34 245 4.8 12.9 0.00 0.00 0.00 54 1017.0
20260902213504 34 248 8.0 11.3 0.00 0.00 0.00 54 1016.8
20260902212504 34 311 8.0 12.9 0.00 0.00 0.00 51 1016.9
20260902212004 34 313 11.3 12.9 0.00 0.00 0.00 52 1016.8
20260902211004 34 278 11.3 12.9 0.00 0.00 0.00 54 1016.9
20260902210504 34 276 8.0 14.5 0.00 0.00 0.00 55 1017.0
20260902210004 34 260 8.0 14.5 0.00 0.00 0.00 54 1016.9
20260902205508 34 273 11.3 14.5 0.00 0.00 0.00 54 1017.1
20260902205004 34 291 8.0 12.9 0.00 0.00 0.00 54 1017.0
20260902204504 34 310 4.8 12.9 0.00 0.00 0.00 54 1017.1
20260902204004 34 307 8.0 12.9 0.00 0.00 0.00 53 1016.9
20260902203004 34 311 8.0 11.3 0.00 0.00 0.00 54 1017.2
20260902202504 33 293 8.0 11.3 0.00 0.00 0.00 54 1017.3
20260902202003 33 269 6.4 14.5 0.00 0.00 0.00 54 1017.1
20260902201504 33 292 8.0 14.5 0.00 0.00 0.00 54 1017.2
20260902201005 33 323 9.7 14.5 0.00 0.00 0.00 53 1017.1
20260902200004 33 270 8.0 17.7 0.00 0.00 0.00 54 1017.5
20260902195505 33 251 8.0 14.5 0.00 0.00 0.00 55 1017.4
20260902195004 33 280 11.3 14.5 0.00 0.00 0.00 55 1017.5
20260902194004 32 276 6.4 14.5 0.00 0.00 0.00 54 1017.5
20260902193504 32 257 8.0 12.9 0.00 0.00 0.00 54 1017.6
20260902193004 32 275 9.7 12.9 0.00 0.00 0.00 55 1017.6
20260902192504 32 269 9.7 14.5 0.00 0.00 0.00 56 1017.7
20260902192004 32 257 9.7 14.5 0.00 0.00 0.00 56 1017.8
20260902191504 32 250 8.0 14.5 0.00 0.00 0.00 56 1017.6
20260902191003 32 242 11.3 17.7 0.00 0.00 0.00 59 1017.7
20260902190504 32 264 6.4 17.7 0.00 0.00 0.00 60 1017.8
20260902190004 32 298 12.9 16.1 0.00 0.00 0.00 57 1018.1
20260902185004 32 310 11.3 17.7 0.00 0.00 0.00 59 1017.9
20260902184505 32 298 9.7 17.7 0.00 0.00 0.00 58 1018.1
20260902184004 32 278 8.0 17.7 0.00 0.00 0.00 64 1017.9
20260902183503 32 277 8.0 17.7 0.00 0.00 0.00 62 1018.1
20260902182004 32 293 8.0 11.3 0.00 0.00 0.00 64 1018.2
20260902181504 32 313 9.7 17.7 0.00 0.00 0.00 64 1018.1
20260902181004 32 324 8.0 17.7 0.00 0.00 0.00 64 1018.2
20260902175503 32 289 11.3 14.5 0.00 0.00 0.00 64 1018.3
20260902175004 31 252 8.0 14.5 0.00 0.00 0.00 66 1018.3
20260902174504 31 277 6.4 14.5 0.00 0.00 0.00 66 1018.3
20260902174004 31 286 4.8 14.5 0.00 0.00 0.00 66 1018.4
20260902173503 31 273 8.0 16.1 0.00 0.00 0.00 66 1018.5
20260902173004 31 280 4.8 16.1 0.00 0.00 0.00 65 1018.5
20260902172504 31 265 6.4 8.0 0.00 0.00 0.00 65 1018.6
20260902172004 31 259 6.4 19.3 0.00 0.00 0.00 66 1018.4
20260902171503 31 329 6.4 19.3 0.00 0.00 0.00 65 1018.7
20260902171005 31 317 16.1 19.3 0.00 0.00 0.00 66 1018.8
20260902170504 31 305 8.0 12.9 0.00 0.00 0.00 65 1018.7
20260902165504 31 303 8.0 12.9 0.00 0.00 0.00 65 1018.7
20260902165003 31 297 8.0 11.3 0.00 0.00 0.00 66 1018.9
20260902164504 31 260 4.8 12.9 0.00 0.00 0.00 66 1018.8
20260902163503 31 251 8.0 16.1 0.00 0.00 0.00 65 1018.9
20260902163004 31 249 9.7 16.1 0.00 0.00 0.00 67 1018.8
20260902162504 31 276 9.7 14.5 0.00 0.00 0.00 67 1018.9
20260902162004 31 288 9.7 14.5 0.00 0.00 0.00 68 1019.1
20260902161503 31 332 8.0 14.5 0.00 0.00 0.00 69 1019.3
20260902161004 30 63 6.4 14.5 0.00 0.00 0.00 69 1019.3
20260902160504 30 61 11.3 14.5 0.00 0.00 0.00 68 1019.2
20260902160006 30 351 11.3 14.5 0.00 0.00 0.00 68 1019.2
20260902155504 30 1 4.8 11.3 0.00 0.00 0.00 68 1019.3
20260902155003 30 337 4.8 9.7 0.00 0.00 0.00 69 1019.1
20260902154504 30 303 1.6 11.3 0.00 0.00 0.00 69 1019.4
20260902153504 30 343 6.4 11.3 0.00 0.00 0.00 69 1019.5
20260902153005 30 323 6.4 9.7 0.00 0.00 0.00 69 1019.3
20260902152503 30 270 8.0 11.3 0.00 0.00 0.00 70 1019.4
20260902152004 30 279 6.4 11.3 0.00 0.00 0.00 69 1019.5
20260902151004 30 331 8.0 11.3 0.00 0.00 0.00 71 1019.3
20260902150505 30 21 4.8 11.3 0.00 0.00 0.00 72 1019.3
20260902150005 30 350 4.8 8.0 0.00 0.00 0.00 72 1019.3
20260902145504 29 318 4.8 9.7 0.00 0.00 0.00 71 1019.4
20260902145004 29 322 6.4 11.3 0.00 0.00 0.00 72 1019.4
20260902144503 29 323 4.8 11.3 0.00 0.00 0.00 71 1019.2
20260902144004 29 322 4.8 11.3 0.00 0.00 0.00 72 1019.4
20260902143504 28 327 4.8 11.3 0.00 0.00 0.00 72 1019.6
20260902143003 28 327 8.0 11.3 0.00 0.00 0.00 73 1019.3
20260902142504 28 346 4.8 9.7 0.00 0.00 0.00 74 1019.4
20260902142004 28 358 6.4 8.0 0.00 0.00 0.00 75 1019.3
20260902141504 28 307 3.2 8.0 0.00 0.00 0.00 75 1019.2
20260902141004 28 291 4.8 8.0 0.00 0.00 0.00 75 1019.2
20260902140504 27 268 4.8 8.0 0.00 0.00 0.00 76 1019.2
20260902140004 27 234 4.8 8.0 0.00 0.00 0.00 76 1019.3
20260902135504 27 255 6.4 8.0 0.00 0.00 0.00 79 1019.3
20260902135004 27 260 8.0 8.0 0.00 0.00 0.00 79 1019.2
20260902134505 26 91 4.8 8.0 0.00 0.00 0.00 79 1019.2
20260902134004 26 50 8.0 8.0 0.00 0.00 0.00 79 1019.3
20260902133504 26 32 3.2 8.0 0.00 0.00 0.00 79 1019.1
20260902132004 25 213 4.8 8.0 0.00 0.00 0.00 79 1019.2
20260902131503 25 221 3.2 8.0 0.00 0.00 0.00 79 1019.1
20260902130504 24 216 4.8 8.0 0.00 0.00 0.00 79 1019.2
20260902130004 24 217 1.6 8.0 0.00 0.00 0.00 79 1019.1
20260902125504 23 220 4.8 8.0 0.00 0.00 0.00 79 1019.1
20260902125004 23 223 3.2 4.8 0.00 0.00 0.00 78 1019.1
20260902124504 23 224 1.6 4.8 0.00 0.00 0.00 77 1019.1
20260902124005 23 239 1.6 4.8 0.00 0.00 0.00 77 1019.2
20260902123504 22 255 1.6 4.8 0.00 0.00 0.00 76 1019.1
20260902123004 22 236 1.6 1.6 0.00 0.00 0.00 75 1018.9
20260902122504 22 218 0.0 3.2 0.00 0.00 0.00 74 1019.1
20260902122003 22 226 1.6 3.2 0.00 0.00 0.00 72 1019.0
20260902121505 22 252 0.0 1.6 0.00 0.00 0.00 71 1018.9
20260902121004 22 298 0.0 1.6 0.00 0.00 0.00 73 1019.0
20260902120506 22 0 0.0 0.0 0.00 0.00 0.00 74 1018.8
20260902120005 22 0 0.0 0.0 0.00 0.00 0.00 74 1018.9
20260902115504 22 0 0.0 0.0 0.00 0.00 0.00 74 1018.9
20260902115006 22 0 0.0 0.0 0.00 0.00 0.00 74 1018.9
20260902114504 22 0 0.0 0.0 0.00 0.00 0.00 74 1018.7
20260902114005 22 0 0.0 0.0 0.00 0.00 0.00 74 1018.5
20260902113503 22 0 0.0 0.0 0.00 0.00 0.00 74 1018.7
20260902113004 22 0 0.0 0.0 0.00 0.00 0.00 74 1018.6
20260902112504 22 0 0.0 0.0 0.00 0.00 0.00 74 1018.8
20260902112003 22 0 0.0 0.0 0.00 0.00 0.00 74 1018.4
20260902111504 22 0 0.0 0.0 0.00 0.00 0.00 74 1018.3
20260902111004 22 0 0.0 0.0 0.00 0.00 0.00 74 1018.3
20260902110504 22 0 0.0 0.0 0.00 0.00 0.00 74 1018.2
20260902110007 22 0 0.0 0.0 0.00 0.00 0.00 74 1018.4
20260902105504 22 14 0.0 1.6 0.00 0.00 0.00 74 1018.4
20260902105005 22 14 0.0 1.6 0.00 0.00 0.00 74 1018.5
20260902104504 22 359 0.0 1.6 0.00 0.00 0.00 74 1018.6
20260902104003 22 5 0.0 1.6 0.00 0.00 0.00 74 1018.3
20260902103504 22 15 0.0 1.6 0.00 0.00 0.00 74 1018.3
20260902103004 22 0 0.0 0.0 0.00 0.00 0.00 74 1018.4
20260902102504 22 0 0.0 0.0 0.00 0.00 0.00 74 1018.2
20260902102004 22 0 0.0 0.0 0.00 0.00 0.00 73 1018.2
20260902101504 22 0 0.0 0.0 0.00 0.00 0.00 73 1018.1
20260902101003 22 0 0.0 0.0 0.00 0.00 0.00 73 1018.2
20260902100504 23 0 0.0 0.0 0.00 0.00 0.00 73 1018.3
20260902100005 23 0 0.0 0.0 0.00 0.00 0.00 73 1018.0
20260902095504 23 0 0.0 0.0 0.00 0.00 0.00 73 1018.2
20260902095005 23 0 0.0 0.0 0.00 0.00 0.00 73 1018.2
20260902094503 23 0 0.0 0.0 0.00 0.00 0.00 73 1018.1
20260902094004 23 0 0.0 0.0 0.00 0.00 0.00 73 1018.0
20260902093504 23 261 0.0 1.6 0.00 0.00 0.00 73 1018.3
20260902092504 23 261 0.0 1.6 0.00 0.00 0.00 73 1018.2
20260902091505 23 241 0.0 1.6 0.00 0.00 0.00 73 1018.2
20260902091004 23 217 0.0 1.6 0.00 0.00 0.00 73 1018.0
20260902090504 23 261 0.0 1.6 0.00 0.00 0.00 73 1018.1
20260902085503 23 0 0.0 0.0 0.00 0.00 0.00 73 1018.1
20260902085004 23 0 0.0 0.0 0.00 0.00 0.00 73 1018.0
20260902084504 23 0 0.0 0.0 0.00 0.00 0.00 73 1017.9
20260902084003 23 0 0.0 0.0 0.00 0.00 0.00 73 1018.1
20260902083503 23 0 0.0 0.0 0.00 0.00 0.00 73 1018.0
20260902083004 23 261 0.0 1.6 0.00 0.00 0.00 73 1017.7
20260902082505 23 261 0.0 1.6 0.00 0.00 0.00 73 1017.7
20260902081504 23 228 0.0 1.6 0.00 0.00 0.00 72 1017.8
20260902081004 23 217 0.0 1.6 0.00 0.00 0.00 72 1017.5
20260902080505 23 0 0.0 0.0 0.00 0.00 0.00 72 1017.8
20260902080004 23 0 0.0 0.0 0.00 0.00 0.00 72 1017.6
20260902075505 23 0 0.0 0.0 0.00 0.00 0.00 72 1017.5
20260902075004 24 0 0.0 0.0 0.00 0.00 0.00 72 1017.7
20260902074504 24 0 0.0 0.0 0.00 0.00 0.00 72 1017.6
20260902074004 24 0 0.0 0.0 0.00 0.00 0.00 72 1017.6
20260902073503 24 0 0.0 0.0 0.00 0.00 0.00 72 1017.6
20260902073004 24 261 0.0 1.6 0.00 0.00 0.00 72 1017.7
20260902072504 24 261 0.0 1.6 0.00 0.00 0.00 72 1017.6
20260902072004 24 0 0.0 0.0 0.00 0.00 0.00 71 1017.6
20260902071504 24 0 0.0 0.0 0.00 0.00 0.00 71 1017.5
20260902071003 24 0 0.0 0.0 0.00 0.00 0.00 71 1017.6
20260902070505 24 0 0.0 0.0 0.00 0.00 0.00 71 1017.5
20260902070006 24 0 0.0 0.0 0.00 0.00 0.00 71 1017.4
20260902065504 24 0 0.0 0.0 0.00 0.00 0.00 71 1017.6
20260902065004 24 0 0.0 0.0 0.00 0.00 0.00 71 1017.5
20260902064004 25 0 0.0 0.0 0.00 0.00 0.00 71 1017.6
20260902063504 25 0 0.0 0.0 0.00 0.00 0.00 71 1017.5
20260902063005 25 261 0.0 1.6 0.00 0.00 0.00 71 1017.5
20260902062503 25 261 0.0 1.6 0.00 0.00 0.00 71 1017.3
20260902062003 25 278 0.0 1.6 0.00 0.00 0.00 71 1017.4
20260902060504 25 242 0.0 1.6 0.00 0.00 0.00 71 1017.6
20260902060004 25 242 0.0 1.6 0.00 0.00 0.00 71 1017.5
20260902055504 25 244 0.0 1.6 0.00 0.00 0.00 70 1017.5
20260902055003 25 251 0.0 1.6 0.00 0.00 0.00 70 1017.5
20260902054004 25 250 0.0 1.6 0.00 0.00 0.00 70 1017.5
20260902053004 25 269 0.0 1.6 0.00 0.00 0.00 70 1017.5
20260902052503 25 243 0.0 1.6 0.00 0.00 0.00 70 1017.6
20260902051504 25 261 0.0 1.6 0.00 0.00 0.00 70 1017.6
20260902051004 25 261 0.0 1.6 0.00 0.00 0.00 70 1017.6
20260902050504 25 0 0.0 0.0 0.00 0.00 0.00 70 1017.5
20260902050007 26 0 0.0 0.0 0.00 0.00 0.00 69 1017.5
20260902045004 26 0 0.0 0.0 0.00 0.00 0.00 69 1017.7
20260902044504 26 261 0.0 1.6 0.00 0.00 0.00 69 1017.8
20260902044005 26 237 0.0 1.6 0.00 0.00 0.00 69 1017.7